Swisher, IA

4:20 PM CDT on August 28, 2016 (GMT -0500)
The Eastern Iowa Airport

Weather History for KCID - March, 2014

Change the Weather History Date:

Saturday, March 1, 2014

  Actual Average Record
Temperature  
Mean Temperature 11 °F 30 °F  
Max Temperature 20 °F 39 °F 71 °F (1992)
Min Temperature 1 °F 21 °F -20 °F (1962)
Degree Days  
Heating Degree Days 54 35  
Month to date heating degree days 54 35  
Since 1 July heating degree days 6093 5318  
Cooling Degree Days 0 0  
Month to date cooling degree days 0 0  
Year to date cooling degree days 0 0  
Moisture  
Dew Point 4 °F    
Average Humidity 76    
Maximum Humidity 87    
Minimum Humidity 64    
Precipitation  
Precipitation 0.01 in 0.06 in 0.83 in (1991)
Month to date precipitation 0.06  
Year to date precipitation 1.75 2.20  
Sea Level Pressure  
Sea Level Pressure 30.28 in    
Wind  
Wind Speed 15 mph (NNW)    
Max Wind Speed 23 mph    
Max Gust Speed 28 mph    
Visibility 5 miles    
Events Snow    
T = Trace of Precipitation, MM = Missing Value Source: NWS Daily Summary

Daily Weather History Graph

Daily Weather History Graph

Search for Another Location

Airport or City:

Trip Planner

Search our weather history database for the weather conditions in past years. The results will help you decide how hot, cold, wet, or windy it might be!

Date:

Astronomy

Mar. 01, 2014 Rise Set
Actual Time 6:41 AM CST 5:57 PM CST
Civil Twilight 6:13 AM CST 6:25 PM CST
Nautical Twilight 5:41 AM CST 6:57 PM CST
Astronomical Twilight 5:09 AM CST 7:29 PM CST
Moon 6:34 AM CST (3/1) 6:46 PM CST (3/1)
Length of Visible Light 12h 11m
Length of Day
11h 15m
New Moon, 0% of the Moon is Illuminated
Mar 1
New Moon
Mar 8
First Quarter
Mar 16
Full
Mar 23
Last Quarter
Mar 30
New

Hourly Weather History & Observations

Time (CST) Temp. Windchill Dew Point Humidity Pressure Visibility Wind Dir Wind Speed Gust Speed Precip Events Conditions
12:09 AM 19.4 °F 6.0 °F 15.8 °F 86% 30.04 in 3.0 mi NNW 13.8 mph - 0.00 in Snow Light Snow
12:21 AM 19.4 °F 6.6 °F 15.8 °F 86% 30.04 in 2.5 mi NNW 12.7 mph - 0.00 in Snow Light Snow
12:32 AM 19.4 °F 6.6 °F 15.8 °F 86% 30.05 in 4.0 mi NNW 12.7 mph - 0.00 in Snow Light Snow
12:42 AM 19.4 °F 6.0 °F 15.8 °F 86% 30.05 in 7.0 mi North 13.8 mph - 0.00 in   Overcast
12:52 AM 19.0 °F 4.5 °F 14.0 °F 81% 30.09 in 10.0 mi North 16.1 mph - 0.00 in   Overcast
1:23 AM 19.4 °F 4.5 °F 14.0 °F 80% 30.06 in 9.0 mi North 17.3 mph - N/A   Overcast
1:52 AM 18.0 °F 3.6 °F 12.9 °F 81% 30.11 in 10.0 mi NNW 15.0 mph - N/A   Overcast
2:23 AM 17.6 °F 2.2 °F 10.4 °F 73% 30.08 in 10.0 mi North 17.3 mph - N/A   Overcast
2:52 AM 17.1 °F 0.1 °F 10.0 °F 74% 30.14 in 9.0 mi NNW 20.7 mph - N/A   Overcast
3:52 AM 16.0 °F 0.6 °F 8.1 °F 71% 30.16 in 10.0 mi NNW 16.1 mph - N/A   Overcast
4:52 AM 15.1 °F -1.6 °F 7.0 °F 70% 30.18 in 10.0 mi NNW 18.4 mph - N/A   Overcast
5:52 AM 15.1 °F -1.1 °F 7.0 °F 70% 30.20 in 9.0 mi North 17.3 mph 25.3 mph N/A   Overcast
6:52 AM 14.0 °F -0.8 °F 5.0 °F 67% 30.24 in 10.0 mi North 13.8 mph - N/A   Overcast
7:52 AM 14.0 °F -2.0 °F 3.9 °F 64% 30.29 in 10.0 mi North 16.1 mph - N/A   Overcast
8:52 AM 14.0 °F -0.2 °F 6.1 °F 71% 30.31 in 4.0 mi North 12.7 mph - 0.00 in Snow Light Snow
9:52 AM 15.1 °F 0.5 °F 5.0 °F 64% 30.31 in 10.0 mi North 13.8 mph - 0.00 in   Scattered Clouds
10:52 AM 14.0 °F -1.4 °F 7.0 °F 74% 30.36 in 7.0 mi NW 15.0 mph - N/A   Overcast
11:03 AM 14.0 °F -2.0 °F 6.8 °F 73% 30.30 in 4.0 mi NW 16.1 mph - 0.00 in Snow Light Snow
11:52 AM 12.9 °F -3.9 °F 6.1 °F 74% 30.35 in 4.0 mi NW 17.3 mph - 0.00 in   Overcast
12:22 PM 12.2 °F -6.7 °F 6.8 °F 79% 30.33 in 2.0 mi NW 21.9 mph - 0.00 in Snow Light Snow
12:52 PM 10.9 °F -6.5 °F 3.9 °F 73% 30.37 in 4.0 mi NNW 17.3 mph - 0.00 in Snow Light Snow
1:52 PM 9.0 °F -9.0 °F 1.9 °F 73% 30.34 in 9.0 mi North 17.3 mph - 0.00 in   Overcast
2:16 PM 8.6 °F -8.3 °F 1.4 °F 73% 30.30 in 1.8 mi NNW 15.0 mph - 0.00 in Snow Light Snow
2:31 PM 8.6 °F -10.0 °F 3.2 °F 79% 30.31 in 1.0 mi NNW 18.4 mph - 0.00 in Snow Light Snow
2:43 PM 8.6 °F -10.0 °F 1.4 °F 73% 30.30 in 2.0 mi North 18.4 mph - 0.00 in Snow Light Snow
2:52 PM 8.1 °F -9.6 °F 1.9 °F 76% 30.36 in 2.0 mi NNW 16.1 mph - 0.00 in Snow Light Snow
3:27 PM 8.6 °F -7.7 °F 1.4 °F 73% 30.31 in 0.5 mi North 13.8 mph - 0.00 in Snow Snow
3:52 PM 7.0 °F -10.4 °F 1.9 °F 80% 30.38 in 0.5 mi North 15.0 mph - 0.00 in Snow Snow
4:52 PM 6.1 °F -9.5 °F 1.0 °F 80% 30.39 in 0.5 mi NNW 11.5 mph - 0.00 in Snow Snow
5:10 PM 6.8 °F -11.3 °F 1.4 °F 79% 30.34 in 1.0 mi NNW 16.1 mph - 0.00 in Snow Light Snow
5:26 PM 5.0 °F -13.6 °F -0.4 °F 78% 30.35 in 0.8 mi NNW 16.1 mph - 0.00 in Snow Light Snow
5:52 PM 3.9 °F -14.3 °F -0.9 °F 80% 30.41 in 0.8 mi NNW 15.0 mph - 0.00 in Snow Light Snow
6:52 PM 3.9 °F -13.0 °F -0.9 °F 80% 30.41 in 0.8 mi NNW 12.7 mph - 0.01 in Snow Light Snow
7:52 PM 3.0 °F -14.8 °F -2.0 °F 80% 30.43 in 0.8 mi NNW 13.8 mph - 0.00 in Snow Light Snow
8:52 PM 1.9 °F -17.5 °F -2.9 °F 80% 30.46 in 1.5 mi NNW 16.1 mph - 0.00 in Snow Light Snow
9:21 PM 1.4 °F -16.9 °F -2.2 °F 85% 30.39 in 1.0 mi NNW 13.8 mph - 0.00 in Snow Light Snow
9:36 PM 1.4 °F -16.9 °F -2.2 °F 85% 30.38 in 1.5 mi NNW 13.8 mph - 0.00 in Snow Light Snow
9:52 PM 1.9 °F -16.9 °F -4.0 °F 76% 30.43 in 2.5 mi NNW 15.0 mph - 0.00 in Snow Light Snow
10:03 PM 1.4 °F -16.9 °F -4.0 °F 78% 30.37 in 2.0 mi NNW 13.8 mph - 0.00 in Snow Light Snow
10:52 PM 1.0 °F -16.6 °F -5.1 °F 75% 30.47 in 3.0 mi NNW 12.7 mph - 0.00 in Snow Light Snow
11:52 PM 1.9 °F -17.5 °F -7.1 °F 66% 30.47 in 10.0 mi NNW 16.1 mph - 0.00 in   Overcast